Regional Weather Roundup
Issued by NWS

Home | Current Version | Previous Version | Graphics & Text | Print | Product List | Glossary On
Versions: 1 2 3 4 5 6 7 8 9 10 11 12 13 14 15 16 17 18 19 20 21 22 23 24 25 26 27 28 29 30 31 32 33 34 35 36 37 38 39 40 41 42 43 44 45 46 47 48 49 50
753
ASUS43 KLSX 211007
RWRMO

WEATHER SUMMARY FOR MISSOURI
NATIONAL WEATHER SERVICE SPRINGFIELD MO
500 AM CDT SAT APR 21 2018

NOTE: "FAIR" INDICATES FEW OR NO CLOUDS BELOW 12,000 FEET WITH NO
       SIGNIFICANT WEATHER AND/OR OBSTRUCTIONS TO VISIBILITY.
       CURRENT SKY AND/OR WEATHER CONDITIONS ARE NOT AVAILABLE FOR
       CHILLICOTHE AND FARMINGTON.

MOZ001>031-035>038-043-044-053-054-211100-
...NORTHERN AND WESTERN MISSOURI...

CITY           SKY/WX    TMP DP  RH WIND       PRES   REMARKS
KANSAS CTY INT CLOUDY    50  25  37 E8        30.25F
KANSAS C DTWN  CLOUDY    52  26  36 E5        30.24F
LEE`S SUMMIT   CLOUDY    50  27  40 E7        30.24F
ST JOSEPH      CLOUDY    51  25  36 E7        30.27F
CHILLICOTHE      N/A     50  24  36 E5        30.30F
KIRKSVILLE     PTCLDY    44  28  53 E5        30.33F

$$
MOZ066>068-077>081-088>096-101>105-211100-
...SOUTHWEST MISSOURI...

CITY           SKY/WX    TMP DP  RH WIND       PRES   REMARKS
SPRINGFIELD    CLOUDY    52  28  39 E8        30.22F
JOPLIN         CLOUDY    53  27  36 E10       30.19F
BRANSON        CLOUDY    48  27  43 CALM      30.23F

$$
MOZ032>034-039>042-045>050-055>058-069>072-211100-
...CENTRAL MISSOURI...

CITY           SKY/WX    TMP DP  RH WIND       PRES   REMARKS
COLUMBIA       CLOUDY    47  25  42 E6        30.30F
JEFFERSON CITY CLOUDY    48  25  40 E5        30.29F
ROLLA          CLOUDY    46  26  45 E10       30.28S
SEDALIA        CLOUDY    49  28  44 E7        30.27F
WHITEMAN AFB   CLOUDY    48  27  45 E8        30.22F
WARRENSBURG    CLOUDY    48  28  46 E7        30.25F
OSAGE BEACH    CLOUDY    48  26  42 E3        30.28F

$$
MOZ051-052-059>065-211100-
...EAST CENTRAL MISSOURI...

CITY           SKY/WX    TMP DP  RH WIND       PRES   REMARKS
ST LOUIS INTL  CLOUDY    46  27  47 E7        30.33S
SPIRIT OF STL  CLOUDY    38  33  82 CALM      30.31F
ST CHARLES     CLOUDY    43  31  62 E8        30.32F

$$
MOZ072>076-082>087-097>100-106>115-211100-
...SOUTH CENTRAL AND SOUTHEAST MISSOURI...

CITY           SKY/WX    TMP DP  RH WIND       PRES   REMARKS
CAPE GIRARDEAU FAIR      48  30  49 E7        30.30R
FARMINGTON     CLOUDY    41  29  62 E3        30.31S
POPLAR BLUFF   FAIR      44  35  70 NE5       30.28R
WEST PLAINS    PTCLDY    45  28  51 NE6       30.26S

$$




USA.gov is the U.S. government's official web portal to all federal, state and local government web resources and services.